This demonstration page uses our WeatherBlox Daily Observations layout. Learn more.

Left ArrowRight Arrow

Hourly Observations for August 13, 2022

Temp ( °F °C ) Dew Point ( °F °C ) Humidity (%) Winds ( mph kmh ) Pressure ( in mb ) Visibility ( mi km ) Precip ( " mm )
12:52 am 00:52 Mostly Cloudy 77 25 64 17.8 64 64 S 9 15 29.96 1015 10 16 0.00 0.00
1:52 am 01:52 Cloudy 76 24.4 64 17.8 67 67 SSE 10 17 29.97 1015 10 16 0.00 0.00
2:52 am 02:52 Cloudy 76 24.4 65 18.3 69 69 S 10 17 29.97 1015 10 16 0.00 0.00
3:52 am 03:52 Cloudy 76 24.4 65 18.3 69 69 S 9 15 29.97 1015 10 16 0.00 0.00
4:52 am 04:52 Cloudy 75 23.9 65 18.3 71 71 SSE 10 17 29.96 1015 10 16 0.00 0.00
5:52 am 05:52 Cloudy 75 23.9 65 18.3 71 71 SSE 9 15 29.96 1015 10 16 0.00 0.00
6:52 am 06:52 Cloudy 75 23.9 65 18.3 71 71 S 9 15 29.96 1015 10 16 0.00 0.00
7:52 am 07:52 Cloudy 75 23.9 66 18.9 74 74 S 15 24 29.94 1014 10 16 0.00 0.00
8:52 am 08:52 Cloudy 79 26.1 63 17.2 58 58 WSW 5 7 29.96 1015 10 16 0.00 0.00
9:52 am 09:52 Mostly Cloudy 82 27.8 62 16.7 51 51 W 9 15 29.95 1014 10 16 0.00 0.00
10:52 am 10:52 Mostly Cloudy 83 28.3 62 16.7 49 49 W 10 17 29.95 1014 10 16 0.00 0.00
11:52 am 11:52 Mostly Cloudy 83 28.3 62 16.7 49 49 NW 7 11 29.96 1015 10 16 0.00 0.00
12:52 pm 12:52 Mostly Cloudy 86 30 67 19.4 53 53 N 7 11 29.95 1014 10 16 0.00 0.00
1:52 pm 13:52 Mostly Cloudy 87 30.6 72 22.2 61 61 NNW 15 24 29.95 1014 10 16 0.00 0.00
2:52 pm 14:52 Mostly Cloudy 87 30.6 71 21.7 59 59 NNW 12 19 29.95 1014 10 16 0.00 0.00
3:52 pm 15:52 Mostly Cloudy 85 29.4 71 21.7 63 63 NNW 12 19 29.95 1014 10 16 0.00 0.00
4:52 pm 16:52 Mostly Cloudy 84 28.9 70 21.1 63 63 NNW 15 24 29.95 1014 10 16 0.00 0.00
5:52 pm 17:52 Mostly Cloudy 83 28.3 70 21.1 65 65 N 15 24 29.96 1014 10 16 0.00 0.00
6:52 pm 18:52 Mostly Cloudy 80 26.7 67 19.4 64 64 N 12 19 29.96 1015 10 16 0.00 0.00
7:52 pm 19:52 Mostly Cloudy 78 25.6 67 19.4 69 69 N 8 13 29.96 1015 10 16 0.00 0.00
8:52 pm 20:52 Mostly Cloudy 76 24.4 68 20 77 77 NNE 7 11 29.96 1015 10 16 0.00 0.00
9:52 pm 21:52 Mostly Cloudy 76 24.4 67 19.4 74 74 NNE 7 11 29.97 1015 10 16 0.00 0.00
10:52 pm 22:52 Cloudy 75 23.9 66 18.9 74 74 NNE 9 15 29.98 1015 10 16 0.00 0.00
11:52 pm 23:52 Cloudy 73 22.8 66 18.9 79 79 N 5 7 29.99 1016 10 16 0.00 0.00

Powered by AerisWeather